Weather in Hilton Head Island

United States     32°11′46″N   80°44′18″W
temp.,
°C
wind,
m/s
gust,
m/s
humid.,
%
clouds,
%
prec.,
mm/h
press.,
hPa
HPBL,
m
6 may, thu
thu623:00+22wsw3881100 0.0 1015217
02:00+21w3789100 0.0 1015241
05:00+20nw369415 0.0 1015223
08:00+20nnw45810 0.0 1017306
11:00+24w135610 0.0 1016985
14:00+26ssw3548100 0.0 10141244
17:00+26wsw3548100 0.0 10131054
20:00+22nw475159 0.0 1013136
7 may, fri
fri723:00+19w311591 0.0 1013298
02:00+18wnw513530 0.0 1013401
05:00+15wnw512580 0.0 1012380
08:00+16wnw613610 0.0 1014570
11:00+21wnw812410 0.0 10141350
14:00+23wnw912310 0.0 10131995
17:00+23wnw812290 0.0 10132286
20:00+19nw58380 0.0 10161093
8 may, sat
sat823:00+15nw48480 0.0 1018265
02:00+14nnw22470 0.0 101898
05:00+12wnw34570 0.0 1018111
08:00+14nw35530 0.0 1020174
11:00+21wnw34345 0.0 10201220
14:00+24sw35295 0.0 10191269
17:00+24wsw353724 0.0 10181174
20:00+21sw345516 0.0 1019149
9 may, sun
sun923:00+18sw356173 0.0 1020148
02:00+18sw36665 0.0 1019207
05:00+18sw35690 0.0 1019167
08:00+20sw356654 0.0 1021253
11:00+24s565136 0.0 10211023
14:00+25s78515 0.0 10191121
17:00+25s71058100 0.0 1018868
20:00+23s71278100 0.0 1017607
10 may, mon
mon1023:00+23s81478100 0.0 1017675
02:00+23ssw81477100 0.0 1016783
05:00+23ssw7148596 0.0 1015715
08:00+22sw5127845 0.0 1017542
11:00+27ssw61060100 0.0 1016976
14:00+28sw5955100 0.1 10151359
17:00+22w81776100 0.2 1014739
20:00+22wsw51277100 0.2 1015510